Time,TemperatureF,DewpointF,PressureIn,WindDirection,WindDirectionDegrees,WindSpeedMPH,WindSpeedGustMPH,Humidity,HourlyPrecipIn,Conditions,Clouds,dailyrainin,SoftwareType,DateUTC
2013-09-18 00:24:00,61.0,-99.9,30.12,North,-999,18.0,20.0,-999,-99.99,,,-99.99,,2013-09-18 05:24:00,
2013-09-18 00:43:00,61.0,-99.9,30.11,North,-999,16.0,20.0,-999,-99.99,,,-99.99,,2013-09-18 05:43:00,
2013-09-18 00:53:00,61.0,-99.9,30.11,North,-999,16.0,20.0,-999,-99.99,,,-99.99,,2013-09-18 05:53:00,
2013-09-18 01:22:00,61.0,-99.9,30.11,North,-999,16.0,20.0,-999,-99.99,,,-99.99,,2013-09-18 06:22:00,
2013-09-18 01:52:00,62.0,-99.9,30.11,North,-999,16.0,20.0,-999,-99.99,,,-99.99,,2013-09-18 06:52:00,
2013-09-18 02:22:00,62.0,-99.9,30.11,North,-999,16.0,18.0,-999,-99.99,,,-99.99,,2013-09-18 07:22:00,
2013-09-18 02:52:00,62.0,-99.9,30.10,North,-999,13.0,18.0,-999,-99.99,,,-99.99,,2013-09-18 07:52:00,
2013-09-18 03:23:00,62.0,-99.9,30.08,North,-999,18.0,22.0,-999,-99.99,,,-99.99,,2013-09-18 08:23:00,
2013-09-18 03:42:00,63.0,-99.9,30.07,North,-999,16.0,20.0,-999,-99.99,,,-99.99,,2013-09-18 08:42:00,
2013-09-18 03:52:00,63.0,-99.9,30.07,North,-999,16.0,20.0,-999,-99.99,,,-99.99,,2013-09-18 08:52:00,
2013-09-18 04:22:00,63.0,-99.9,30.06,North,-999,16.0,20.0,-999,-99.99,,,-99.99,,2013-09-18 09:22:00,
2013-09-18 04:53:00,63.0,-99.9,30.06,North,-999,16.0,20.0,-999,-99.99,,,-99.99,,2013-09-18 09:53:00,
2013-09-18 05:23:00,62.0,-99.9,30.06,North,-999,16.0,20.0,-999,-99.99,,,-99.99,,2013-09-18 10:23:00,
2013-09-18 05:43:00,63.0,-99.9,30.05,North,-999,16.0,18.0,-999,-99.99,,,-99.99,,2013-09-18 10:43:00,
2013-09-18 05:53:00,63.0,-99.9,30.05,North,-999,16.0,18.0,-999,-99.99,,,-99.99,,2013-09-18 10:53:00,
2013-09-18 06:22:00,62.0,-99.9,30.06,North,-999,13.0,16.0,-999,-99.99,,,-99.99,,2013-09-18 11:22:00,
2013-09-18 06:53:00,62.0,-99.9,30.05,North,-999,11.0,13.0,-999,-99.99,,,-99.99,,2013-09-18 11:53:00,
2013-09-18 07:22:00,63.0,-99.9,30.05,North,-999,16.0,20.0,-999,-99.99,,,-99.99,,2013-09-18 12:22:00,
2013-09-18 07:43:00,62.0,-99.9,30.04,North,-999,18.0,20.0,-999,-99.99,,,-99.99,,2013-09-18 12:43:00,
2013-09-18 07:52:00,62.0,-99.9,30.04,North,-999,18.0,20.0,-999,-99.99,,,-99.99,,2013-09-18 12:52:00,
2013-09-18 08:11:00,61.0,-99.9,30.04,North,-999,18.0,22.0,-999,-99.99,,,-99.99,,2013-09-18 13:11:00,
2013-09-18 23:25:00,67.0,-99.9,29.89,North,-999,9.0,11.0,-999,-99.99,,,-99.99,,2013-09-19 04:25:00,
2013-09-18 23:54:00,67.0,-99.9,29.90,North,-999,7.0,9.0,-999,-99.99,,,-99.99,,2013-09-19 04:54:00,